{"data":{"norad_id":61845,"epoch":"2026-09-21T21:20:33.931104Z","epoch_age_seconds":68149,"freshness":"FRESH","line1":"1 61845U 24202A   26264.88928161  .00000753  00000+0  36887-4 0  9997","line2":"2 61845  43.0025 198.7288 0001072 268.5045  91.5684 15.27588656106051","mean_motion":15.27588656,"eccentricity":0.0001072,"inclination_deg":43.0025,"raan_deg":198.7288,"arg_perigee_deg":268.5045,"mean_anomaly_deg":91.5684,"bstar":3.6887e-5,"rev_number":10605,"period_min":94.266214556126,"perigee_km":482.28766061309,"apogee_km":483.75869335504,"semimajor_km":6861.1601769841,"source":"CELESTRAK","updated_at":"2026-09-22T09:00:49.439481Z"}}